Bradford, PA

1:02 PM EDT on July 24, 2017 (GMT -0400)
Bradford Regional

Weather History for KBFD - November, 2012

Change the Weather History Date:

Thursday, November 1, 2012

  Actual Average Record
Temperature  
Mean Temperature 39 °F 42 °F  
Max Temperature 41 °F 51 °F 70 °F (1974)
Min Temperature 37 °F 33 °F 20 °F (1976)
Degree Days  
Heating Degree Days 26 18  
Month to date heating degree days 18  
Since 1 July heating degree days 1011  
Cooling Degree Days 0 0  
Month to date cooling degree days 0  
Year to date cooling degree days 193  
Moisture  
Dew Point 35 °F    
Average Humidity 87    
Maximum Humidity 93    
Minimum Humidity 79    
Precipitation  
Precipitation 0.16 in 0.11 in 0.75 in (1959)
Month to date precipitation 0.11  
Year to date precipitation 37.41  
Sea Level Pressure  
Sea Level Pressure 29.57 in    
Wind  
Wind Speed 9 mph (West)    
Max Wind Speed 15 mph    
Max Gust Speed 24 mph    
Visibility 6 miles    
Events Rain    
T = Trace of Precipitation, MM = Missing Value Source: NWS Daily Summary

Daily Weather History Graph

Daily Weather History Graph

Search for Another Location

Airport or City:

Trip Planner

Search our weather history database for the weather conditions in past years. The results will help you decide how hot, cold, wet, or windy it might be!

Date:

Astronomy

Nov. 01, 2012 Rise Set
Actual Time 7:47 AM EDT 6:08 PM EDT
Civil Twilight 7:18 AM EDT 6:37 PM EDT
Nautical Twilight 6:45 AM EDT 7:10 PM EDT
Astronomical Twilight 6:13 AM EDT 7:42 PM EDT
Moon 8:02 PM EDT (11/1) 10:20 AM EDT (11/1)
Length of Visible Light 11h 18m
Length of Day
10h 20m
Waning Gibbous, 93% of the Moon is Illuminated
Nov 1
Waning Gibbous
Nov 6
Last Quarter
Nov 13
New
Nov 20
First Quarter
Nov 28
Full

Hourly Weather History & Observations

Time (EDT) Temp. Windchill Dew Point Humidity Pressure Visibility Wind Dir Wind Speed Gust Speed Precip Events Conditions
12:53 AM 37.9 °F 31.5 °F 35.1 °F 89% 29.53 in 7.0 mi West 9.2 mph - 0.01 in Rain Light Rain
1:53 AM 37.0 °F 31.6 °F 34.0 °F 89% 29.53 in 7.0 mi West 6.9 mph - 0.01 in Rain Light Rain
2:53 AM 37.0 °F 32.4 °F 34.0 °F 89% 29.54 in 5.0 mi Variable 5.8 mph - 0.02 in Rain Light Rain
4:42 AM 37.0 °F 31.6 °F 34.0 °F 89% 29.50 in 2.5 mi WSW 6.9 mph - 0.00 in Rain Light Rain
4:53 AM 37.0 °F 31.6 °F 34.0 °F 89% 29.54 in 2.5 mi WSW 6.9 mph 19.6 mph 0.00 in   Overcast
5:17 AM 37.0 °F 29.8 °F 34.0 °F 89% 29.51 in 3.0 mi WSW 10.4 mph - 0.01 in Rain Light Rain
5:24 AM 37.0 °F 31.6 °F 34.0 °F 89% 29.51 in 2.5 mi WSW 6.9 mph - 0.01 in Rain Light Rain
5:32 AM 37.0 °F 32.4 °F 34.0 °F 89% 29.51 in 3.0 mi Variable 5.8 mph - 0.01 in Rain Light Rain
5:53 AM 37.0 °F 30.4 °F 34.0 °F 89% 29.54 in 4.0 mi WSW 9.2 mph 19.6 mph 0.01 in Rain Light Rain
6:53 AM 37.0 °F 31.0 °F 35.1 °F 93% 29.55 in 3.0 mi West 8.1 mph - 0.01 in   Overcast
7:23 AM 37.0 °F 31.6 °F 35.1 °F 93% 29.52 in 2.5 mi West 6.9 mph - 0.01 in   Overcast
7:32 AM 37.9 °F 31.5 °F 35.1 °F 89% 29.52 in 3.0 mi West 9.2 mph - 0.01 in   Overcast
7:53 AM 37.9 °F 32.1 °F 35.1 °F 89% 29.56 in 3.0 mi West 8.1 mph - 0.01 in   Overcast
8:24 AM 37.9 °F 32.1 °F 35.1 °F 89% 29.54 in 2.5 mi West 8.1 mph - 0.01 in Rain Light Rain
8:53 AM 37.9 °F 30.5 °F 35.1 °F 89% 29.57 in 2.5 mi West 11.5 mph 17.3 mph 0.01 in Rain Light Rain
9:00 AM 37.9 °F 31.5 °F 35.1 °F 89% 29.55 in 3.0 mi West 9.2 mph 18.4 mph 0.00 in Rain Light Rain
9:22 AM 37.9 °F 32.1 °F 35.1 °F 89% 29.55 in 2.5 mi WSW 8.1 mph - 0.00 in Rain Light Rain
9:30 AM 37.9 °F 32.7 °F 35.1 °F 89% 29.55 in 4.0 mi Variable 6.9 mph - 0.00 in   Overcast
9:53 AM 39.0 °F 33.4 °F 35.1 °F 86% 29.59 in 5.0 mi West 8.1 mph - 0.01 in Rain Light Rain
10:53 AM 39.0 °F 32.3 °F 35.1 °F 86% 29.59 in 6.0 mi West 10.4 mph 19.6 mph 0.00 in Rain Light Rain
11:53 AM 39.0 °F 32.3 °F 35.1 °F 86% 29.60 in 10.0 mi West 10.4 mph 18.4 mph 0.00 in   Overcast
12:45 PM 39.0 °F 33.4 °F 35.1 °F 86% 29.57 in 6.0 mi West 8.1 mph 19.6 mph N/A   Overcast
12:53 PM 39.9 °F 33.9 °F 35.1 °F 83% 29.60 in 6.0 mi West 9.2 mph 18.4 mph 0.00 in Rain Light Rain
1:48 PM 39.2 °F 32.0 °F 35.6 °F 87% 29.56 in 10.0 mi West 11.5 mph 24.2 mph 0.01 in   Overcast
1:53 PM 41.0 °F 33.9 °F 36.0 °F 82% 29.59 in 10.0 mi West 12.7 mph 24.2 mph 0.01 in Rain Light Rain
2:26 PM 39.9 °F 32.5 °F 35.1 °F 83% 29.56 in 10.0 mi West 12.7 mph 19.6 mph 0.00 in   Overcast
2:53 PM 39.9 °F 33.4 °F 35.1 °F 83% 29.58 in 9.0 mi West 10.4 mph 16.1 mph 0.00 in Rain Light Rain
3:28 PM 41.0 °F 33.9 °F 35.1 °F 79% 29.56 in 10.0 mi West 12.7 mph 19.6 mph 0.00 in   Overcast
3:53 PM 39.9 °F 32.9 °F 35.1 °F 83% 29.60 in 10.0 mi West 11.5 mph 20.7 mph 0.00 in Rain Light Rain
4:00 PM 39.9 °F 34.5 °F 35.1 °F 83% 29.57 in 9.0 mi West 8.1 mph 17.3 mph 0.00 in Rain Light Rain
4:30 PM 39.9 °F 32.9 °F 35.1 °F 83% 29.57 in 10.0 mi West 11.5 mph - 0.00 in   Overcast
4:53 PM 39.9 °F 34.5 °F 35.1 °F 83% 29.60 in 10.0 mi West 8.1 mph - 0.00 in   Overcast
5:47 PM 39.2 °F 32.5 °F 35.6 °F 87% 29.59 in 8.0 mi West 10.4 mph 18.4 mph 0.00 in Rain Light Rain
5:48 PM 39.0 °F 32.8 °F 35.1 °F 86% 29.62 in 8.0 mi WNW 9.2 mph 18.4 mph 0.00 in Rain Light Rain
6:06 PM 39.0 °F 32.8 °F 35.1 °F 86% 29.59 in 10.0 mi West 9.2 mph - 0.00 in   Overcast
6:53 PM 37.9 °F 31.5 °F 35.1 °F 89% 29.65 in 8.0 mi West 9.2 mph - 0.01 in Rain Light Rain
7:53 PM 37.9 °F 31.5 °F 34.0 °F 86% 29.66 in 6.0 mi West 9.2 mph 18.4 mph 0.02 in Rain Light Rain
8:53 PM 37.9 °F 30.9 °F 34.0 °F 86% 29.66 in 4.0 mi West 10.4 mph - 0.01 in Rain Light Rain
9:53 PM 37.0 °F 28.1 °F 34.0 °F 89% 29.67 in 7.0 mi West 15.0 mph 23.0 mph 0.01 in   Overcast
10:53 PM 37.0 °F 31.0 °F 33.1 °F 86% 29.67 in 10.0 mi West 8.1 mph 19.6 mph 0.00 in Rain Light Rain
11:53 PM 37.0 °F 29.8 °F 33.1 °F 86% 29.67 in 10.0 mi West 10.4 mph - 0.01 in Rain Light Rain